Weather in Chicanná

Mexico     18°30′45″N   89°27′46″W
temp.,
°C
wind,
m/s
gust,
m/s
humid.,
%
clouds,
%
prec.,
mm/h
press.,
hPa
HPBL,
m
16 april, fri
fri1601:00+22ese3119744 0.0 1011459
04:00+23ese4108982 0.0 1009681
07:00+22ese398762 0.0 1010678
10:00+29se36523 0.0 10111091
13:00+34se34380 0.0 10091885
16:00+35ese33310 0.0 10052161
19:00+31e37430 0.0 1006524
22:00+24ese311742 0.0 1009486
17 april, sat
sat1701:00+22ese3139468 0.0 1009575
04:00+23ese31188100 0.0 1008671
07:00+24ese3981100 0.0 1009739
10:00+30ese365615 0.0 1010959
13:00+36ese34345 0.0 10072185
16:00+38ese32255 0.0 10043298
19:00+32e49501 0.0 1005834
22:00+25ese4128398 0.0 1009563
18 april, sun
sun1801:00+24ese31092100 0.0 1009597
04:00+25ese2789100 0.1 1009602
07:00+23ese2698100 2.3 1010215
10:00+26ese138392 0.0 1012563
13:00+37se123875 0.0 10092162
16:00+33nne1245100 0.3 1006941
19:00+23s3696100 22.2 1009166
22:00+20e289516 15.0 1013357
19 april, mon
mon1901:00+19wnw009813 15.0 101217
04:00+20sw119926 0.0 101140
07:00+21wsw179967 0.0 1013294
10:00+26w247333 0.0 1014795
13:00+32wsw224648 0.0 10112025
16:00+28sw2662100 0.0 1009266
19:00+25wnw268216 0.3 1010215
22:00+23nw289315 0.0 1012225
20 april, tue
tue2001:00+22w119935 0.3 101219
04:00+21nw009939 0.0 101119
07:00+21se1199100 0.0 101233
10:00+29se2365100 0.0 1013808
13:00+34se224399 0.0 10112112
16:00+29ene2558100 0.1 1009210
19:00+25nne1487100 2.0 1011103
22:00+23ene2796100 2.4 1013220